METAR Formatted Surface Weather Observation
Issued by NWS

Home | Current Version | Previous Version | Text Only | Print | Product List | Glossary On
Versions: 1 2 3 4 5 6 7 8 9 10 11 12 13 14 15 16 17 18 19 20 21 22 23 24 25 26 27 28 29 30 31 32 33 34 35 36 37 38 39 40 41 42 43 44 45 46 47 48 49 50
372
SAUS41 KAKQ 052357
MTRNTU
METAR KNTU 052356Z 04018KT 3SM BR BKN009 OVC015 12/08 A2959 RMK AO2
SFC VIS 5 RAB10E42 SLP023 P0000 60000 T01220083 10139 20122 50012



USA.gov is the U.S. government's official web portal to all federal, state and local government web resources and services.